Location: Arrington
(35.8681°N, 86.7092°W)
Time: 06:43:06
(UTC+00:00)

STARLINK 1058 - Pass Details

Date: 23 November 2019
Orbit: 425 x 427 km, 53.0° (Epoch: 06 December)

Event Time Altitude Azimuth Distance (km) Brightness Sun altitude
Exits shadow 11:19:09 18° 237° (WSW) 1,109 4.8 -14.5°
Maximum altitude 11:21:31 67° 318° (NW) 462 3.0 -14.0°
Drops below altitude 10° 11:24:54 10° 41° (NE) 1,516 6.2 -13.4°
Sets 11:27:01 0° 44° (NE) 2,385 7.3 -12.9°
